No particular awareness of the weather is required.    There are no Weather-warnings


Meteo18 Weather Cam more information Meteo18 Weather Cam


Thunder radar more information blitzortung!


Rain radar more information rain snow radar


Visit our other weather sites:

Template documentation
and downloads

And another site



Weather Underground History page Text

Daily Summary for February 23, 2018 Units:  English    Metric   Both
« Previous Day
Next Day »
Daily Weekly Monthly Yearly Custom
  High: Low: Average:
Temperature: TemperatureC °F -1.8 °F 0.2 °F
Dew Point: DewpointC °F -5.7 °F -4.4 °F
Humidity: Humidity % 63 % 71 %
Wind Speed: WindSpeedKMH mph 0.0 mph 9.4 mph
Wind Gust: WindSpeedGustKMH mph - -
Wind:- - NE
Pressure: PressurehPa in 1012.1 in -
Precipitation: 0.0 in    
Historical Graphs
 
 
Tabular Data for February 23, 2018
Time Temperature Dew Point Pressure Wind Wind Speed Wind Gust Humidity Rainfall Rate (Hourly)
TemperatureC °F DewpointC °F PressurehPa in Calm     Humidity % HourlyPrecipMM in
00:02 1.2 °F -5.1 °F 1013.4 in NNE 14.3 mph 24.1 mph 63 % 0.0 in
00:08 1.2 °F -4.9 °F 1013.4 in NNE 13.0 mph 22.5 mph 64 % 0.0 in
00:14 1.1 °F -5.0 °F 1013.4 in NE 14.3 mph 16.1 mph 64 % 0.0 in
00:20 1.1 °F -5.0 °F 1013.4 in NNE 16.3 mph 22.5 mph 64 % 0.0 in
00:26 1.1 °F -5.0 °F 1013.4 in NNE 16.3 mph 20.9 mph 64 % 0.0 in
00:32 1.0 °F -4.8 °F 1013.4 in NNE 13.0 mph 22.5 mph 65 % 0.0 in
00:38 1.0 °F -5.0 °F 1013.4 in NNE 17.7 mph 24.1 mph 64 % 0.0 in
00:44 1.0 °F -5.0 °F 1013.4 in ESE 11.1 mph 29.0 mph 64 % 0.0 in
00:50 0.9 °F -5.1 °F 1013.4 in NE 19.5 mph 22.5 mph 64 % 0.0 in
00:56 0.9 °F -4.9 °F 1013.4 in NE 9.7 mph 22.5 mph 65 % 0.0 in
01:02 0.9 °F -4.9 °F 1013.4 in NE 14.3 mph 17.7 mph 65 % 0.0 in
01:08 0.9 °F -4.9 °F 1013.4 in NNE 7.9 mph 22.5 mph 65 % 0.0 in
01:14 0.9 °F -4.9 °F 1013.4 in NE 14.3 mph 25.7 mph 65 % 0.0 in
01:20 0.9 °F -5.1 °F 1013.4 in NE 13.0 mph 25.7 mph 64 % 0.0 in
01:26 0.9 °F -4.9 °F 1013.4 in North 11.1 mph 20.9 mph 65 % 0.0 in
01:32 0.8 °F -5.0 °F 1013.4 in ENE 14.3 mph 29.0 mph 65 % 0.0 in
01:38 0.8 °F -5.0 °F 1013.4 in NNE 17.7 mph 20.9 mph 65 % 0.0 in
01:44 0.8 °F -5.0 °F 1013.4 in NNE 9.7 mph 17.7 mph 65 % 0.0 in
01:50 0.8 °F -4.8 °F 1013.4 in NE 11.1 mph 17.7 mph 66 % 0.0 in
01:56 0.7 °F -5.1 °F 1013.4 in NE 14.3 mph 20.9 mph 65 % 0.0 in
02:02 0.7 °F -4.9 °F 1013.4 in NNE 16.3 mph 16.3 mph 66 % 0.0 in
02:08 0.7 °F -4.9 °F 1013.4 in NE 19.5 mph 19.5 mph 66 % 0.0 in
02:14 0.7 °F -4.7 °F 1013.4 in NE 14.3 mph 22.5 mph 67 % 0.0 in
02:20 0.6 °F -5.0 °F 1013.1 in ENE 13.0 mph 20.9 mph 66 % 0.0 in
02:27 0.6 °F -5.0 °F 1013.1 in NNE 14.3 mph 22.5 mph 66 % 0.0 in
02:33 0.6 °F -5.0 °F 1013.1 in NE 9.7 mph 27.4 mph 66 % 0.0 in
02:39 0.5 °F -4.9 °F 1013.1 in NNE 20.9 mph 20.9 mph 67 % 0.0 in
02:45 0.4 °F -5.0 °F 1012.8 in NNE 16.3 mph 19.3 mph 67 % 0.0 in
02:51 0.4 °F -5.0 °F 1012.8 in NE 13.0 mph 19.3 mph 67 % 0.0 in
02:57 0.4 °F -4.8 °F 1012.8 in NE 11.1 mph 19.3 mph 68 % 0.0 in
03:03 0.3 °F -5.1 °F 1012.8 in NE 17.7 mph 27.4 mph 67 % 0.0 in
03:09 0.3 °F -4.9 °F 1012.8 in NNE 9.7 mph 20.9 mph 68 % 0.0 in
03:15 0.3 °F -4.9 °F 1012.8 in NNE 11.1 mph 27.4 mph 68 % 0.0 in
03:21 0.2 °F -4.8 °F 1012.8 in NE 7.9 mph 19.3 mph 69 % 0.0 in
03:27 0.2 °F -4.6 °F 1012.8 in NNE 17.7 mph 22.5 mph 70 % 0.0 in
03:33 0.1 °F -4.9 °F 1012.8 in ENE 6.4 mph 20.9 mph 69 % 0.0 in
03:39 0.1 °F -4.7 °F 1012.8 in NNE 13.0 mph 22.5 mph 70 % 0.0 in
03:45 0.0 °F -4.8 °F 1012.8 in ENE 17.7 mph 22.5 mph 70 % 0.0 in
03:51 0.0 °F -5.0 °F 1012.8 in NNW 17.7 mph 22.5 mph 69 % 0.0 in
03:57 -0.1 °F -4.9 °F 1012.8 in NNE 14.3 mph 19.3 mph 70 % 0.0 in
04:03 -0.1 °F -4.9 °F 1012.4 in NE 14.3 mph 24.1 mph 70 % 0.0 in
04:09 -0.2 °F -5.0 °F 1012.8 in NE 9.7 mph 20.9 mph 70 % 0.0 in
04:15 -0.2 °F -5.0 °F 1012.4 in North 13.0 mph 20.9 mph 70 % 0.0 in
04:21 -0.3 °F -5.1 °F 1012.8 in NE 14.3 mph 24.1 mph 70 % 0.0 in
04:27 -0.3 °F -5.1 °F 1012.4 in NE 11.1 mph 19.3 mph 70 % 0.0 in
04:33 -0.3 °F -4.9 °F 1012.4 in NE 17.7 mph 22.5 mph 71 % 0.0 in
04:39 -0.4 °F -4.8 °F 1012.4 in NE 20.9 mph 20.9 mph 72 % 0.0 in
04:45 -0.4 °F -5.0 °F 1012.4 in NNE 13.0 mph 16.1 mph 71 % 0.0 in
04:51 -0.5 °F -5.1 °F 1012.4 in NE 11.1 mph 20.9 mph 71 % 0.0 in
04:57 -0.6 °F -5.2 °F 1012.4 in NNE 14.3 mph 25.7 mph 71 % 0.0 in
05:03 -0.6 °F -5.0 °F 1012.4 in NE 14.3 mph 16.1 mph 72 % 0.0 in
05:09 -0.7 °F -5.1 °F 1012.4 in NNE 9.7 mph 16.1 mph 72 % 0.0 in
05:15 -0.7 °F -5.3 °F 1012.4 in ENE 6.4 mph 22.5 mph 71 % 0.0 in
05:21 -0.8 °F -5.2 °F 1012.4 in NNE 11.1 mph 17.7 mph 72 % 0.0 in
05:27 -0.8 °F -5.2 °F 1012.4 in ENE 6.4 mph 19.3 mph 72 % 0.0 in
05:33 -0.9 °F -5.1 °F 1012.4 in NE 4.7 mph 17.7 mph 73 % 0.0 in
05:39 -0.9 °F -5.1 °F 1012.4 in NE 17.7 mph 20.9 mph 73 % 0.0 in
05:45 -0.9 °F -5.1 °F 1012.4 in NNE 11.1 mph 20.9 mph 73 % 0.0 in
05:51 -1.0 °F -5.2 °F 1012.4 in NNE 13.0 mph 16.1 mph 73 % 0.0 in
05:57 -1.0 °F -5.2 °F 1012.4 in East 11.1 mph 16.1 mph 73 % 0.0 in
06:03 -1.1 °F -5.3 °F 1012.4 in NE 13.0 mph 17.7 mph 73 % 0.0 in
06:09 -1.1 °F -5.3 °F 1012.4 in North 13.0 mph 22.5 mph 73 % 0.0 in
06:15 -1.1 °F -5.3 °F 1012.4 in ENE 17.7 mph 19.3 mph 73 % 0.0 in
06:21 -1.1 °F -5.3 °F 1012.4 in NE 13.0 mph 20.9 mph 73 % 0.0 in
06:27 -1.2 °F -5.4 °F 1012.4 in NE 1.4 mph 24.1 mph 73 % 0.0 in
06:33 -1.2 °F -5.4 °F 1012.8 in NE 3.2 mph 19.3 mph 73 % 0.0 in
06:39 -1.2 °F -5.4 °F 1012.8 in North 16.3 mph 20.9 mph 73 % 0.0 in
06:45 -1.2 °F -5.4 °F 1012.8 in NNE 14.3 mph 19.3 mph 73 % 0.0 in
06:51 -1.2 °F -5.4 °F 1012.8 in NNW 7.9 mph 22.5 mph 73 % 0.0 in
06:57 -1.2 °F -5.4 °F 1012.8 in ESE 6.4 mph 20.9 mph 73 % 0.0 in
07:03 -1.2 °F -5.4 °F 1012.4 in North 13.0 mph 20.9 mph 73 % 0.0 in
07:09 -1.3 °F -5.5 °F 1012.8 in NNE 7.9 mph 17.7 mph 73 % 0.0 in
07:15 -1.3 °F -5.3 °F 1012.8 in NE 9.7 mph 14.5 mph 74 % 0.0 in
07:21 -1.3 °F -5.5 °F 1012.8 in NE 4.7 mph 17.7 mph 73 % 0.0 in
07:27 -1.4 °F -5.4 °F 1012.8 in ENE 6.4 mph 16.1 mph 74 % 0.0 in
07:33 -1.4 °F -5.4 °F 1012.8 in ESE 4.7 mph 11.3 mph 74 % 0.0 in
07:39 -1.6 °F -5.6 °F 1012.8 in NE 11.1 mph 12.9 mph 74 % 0.0 in
07:45 -1.6 °F -5.6 °F 1012.8 in NNE 9.7 mph 17.7 mph 74 % 0.0 in
07:51 -1.7 °F -5.7 °F 1012.8 in ENE 4.7 mph 19.3 mph 74 % 0.0 in
07:57 -1.7 °F -5.5 °F 1012.8 in NNE 11.1 mph 11.3 mph 75 % 0.0 in
08:03 -1.7 °F -5.5 °F 1012.8 in NE 3.2 mph 12.9 mph 75 % 0.0 in
08:09 -1.7 °F -5.5 °F 1012.8 in NE 4.7 mph 12.9 mph 75 % 0.0 in
08:15 -1.7 °F -5.5 °F 1012.8 in NE 11.1 mph 24.1 mph 75 % 0.0 in
08:21 -1.7 °F -5.7 °F 1012.8 in NNE 11.1 mph 16.1 mph 74 % 0.0 in
08:27 -1.7 °F -5.5 °F 1012.8 in NNE 6.4 mph 17.7 mph 75 % 0.0 in
08:33 -1.7 °F -5.5 °F 1012.8 in North 4.7 mph 12.9 mph 75 % 0.0 in
08:39 -1.8 °F -5.6 °F 1013.1 in NNE 4.7 mph 17.7 mph 75 % 0.0 in
08:45 -1.8 °F -5.6 °F 1013.1 in NNE 13.0 mph 20.9 mph 75 % 0.0 in
08:51 -1.7 °F -5.5 °F 1013.1 in NE 9.7 mph 16.1 mph 75 % 0.0 in
08:57 -1.7 °F -5.5 °F 1013.1 in ENE 6.4 mph 19.3 mph 75 % 0.0 in
09:03 -1.8 °F -5.6 °F 1013.1 in ENE 6.4 mph 27.4 mph 75 % 0.0 in
09:09 -1.8 °F -5.6 °F 1013.1 in NE 14.3 mph 20.9 mph 75 % 0.0 in
09:15 -1.7 °F -5.5 °F 1013.1 in NNE 9.7 mph 22.5 mph 75 % 0.0 in
09:21 -1.7 °F -5.5 °F 1013.1 in NE 9.7 mph 20.9 mph 75 % 0.0 in
09:27 -1.6 °F -5.4 °F 1013.1 in NNE 13.0 mph 22.5 mph 75 % 0.0 in
09:33 -1.6 °F -5.6 °F 1013.1 in NNE 17.7 mph 32.2 mph 74 % 0.0 in
09:39 -1.6 °F -5.4 °F 1013.1 in NE 6.4 mph 19.3 mph 75 % 0.0 in
09:45 -1.5 °F -5.4 °F 1013.1 in NE 16.3 mph 22.5 mph 75 % 0.0 in
09:51 -1.5 °F -5.5 °F 1013.1 in NNE 11.1 mph 29.0 mph 74 % 0.0 in
09:57 -1.4 °F -5.3 °F 1013.1 in NE 17.7 mph 19.3 mph 75 % 0.0 in
10:03 -1.4 °F -5.4 °F 1013.1 in NNE 16.3 mph 27.4 mph 74 % 0.0 in
10:10 -1.4 °F -5.4 °F 1013.1 in NE 6.4 mph 22.5 mph 74 % 0.0 in
10:15 -1.4 °F -5.4 °F 1013.1 in NNE 20.9 mph 24.1 mph 74 % 0.0 in
10:21 -1.3 °F -5.3 °F 1013.1 in NE 16.3 mph 22.5 mph 74 % 0.0 in
10:27 -1.2 °F -5.2 °F 1013.4 in ENE 9.7 mph 22.5 mph 74 % 0.0 in
10:33 -1.2 °F -5.2 °F 1013.4 in NE 3.2 mph 19.3 mph 74 % 0.0 in
10:40 -1.1 °F -5.0 °F 1013.1 in NE 7.9 mph 16.1 mph 75 % 0.0 in
10:46 -1.0 °F -5.0 °F 1013.1 in ENE 9.7 mph 17.7 mph 74 % 0.0 in
10:52 -0.6 °F -4.7 °F 1013.1 in NE 13.0 mph 16.1 mph 74 % 0.0 in
10:58 -0.4 °F -4.6 °F 1013.1 in ENE 19.5 mph 19.5 mph 73 % 0.0 in
11:04 -0.3 °F -4.7 °F 1013.1 in NNE 7.9 mph 17.7 mph 72 % 0.0 in
11:10 -0.3 °F -4.7 °F 1013.1 in East 9.7 mph 17.7 mph 72 % 0.0 in
11:16 -0.4 °F -4.8 °F 1013.1 in NNE 9.7 mph 19.3 mph 72 % 0.0 in
11:22 -0.4 °F -4.8 °F 1013.1 in NE 6.4 mph 19.3 mph 72 % 0.0 in
11:28 -0.2 °F -4.6 °F 1013.1 in NNE 14.3 mph 17.7 mph 72 % 0.0 in
11:34 -0.2 °F -4.6 °F 1013.1 in NE 16.3 mph 19.3 mph 72 % 0.0 in
11:40 -0.1 °F -4.7 °F 1013.1 in NE 16.3 mph 19.3 mph 71 % 0.0 in
11:46 0.0 °F -4.6 °F 1013.1 in North 7.9 mph 17.7 mph 71 % 0.0 in
11:52 0.2 °F -4.6 °F 1012.8 in ENE 6.4 mph 17.7 mph 70 % 0.0 in
11:58 0.5 °F -4.1 °F 1012.8 in NNE 19.5 mph 20.9 mph 71 % 0.0 in
12:04 0.8 °F -3.9 °F 1012.8 in NE 9.7 mph 16.1 mph 71 % 0.0 in
12:10 0.9 °F -4.1 °F 1012.8 in NNE 17.7 mph 19.3 mph 69 % 0.0 in
12:16 0.8 °F -4.0 °F 1012.8 in NNE 19.5 mph 20.9 mph 70 % 0.0 in
12:22 0.9 °F -4.1 °F 1012.8 in NNE 13.0 mph 20.9 mph 69 % 0.0 in
12:28 1.0 °F -3.9 °F 1012.8 in East 14.3 mph 17.7 mph 70 % 0.0 in
12:34 1.2 °F -3.9 °F 1012.8 in North 7.9 mph 16.1 mph 69 % 0.0 in
12:40 1.3 °F -4.0 °F 1012.8 in East 4.7 mph 17.7 mph 68 % 0.0 in
12:46 1.1 °F -4.0 °F 1012.8 in North 9.7 mph 20.9 mph 69 % 0.0 in
12:52 1.3 °F -3.8 °F 1012.4 in NNE 11.1 mph 19.3 mph 69 % 0.0 in
12:58 1.6 °F -3.9 °F 1012.8 in NNE 14.3 mph 22.5 mph 67 % 0.0 in
13:04 1.2 °F -4.1 °F 1012.8 in NNE 7.9 mph 12.9 mph 68 % 0.0 in
13:10 1.4 °F -3.7 °F 1012.4 in NNE 20.9 mph 24.1 mph 69 % 0.0 in
13:16 1.3 °F -4.0 °F 1012.8 in East 7.9 mph 19.3 mph 68 % 0.0 in
13:22 1.3 °F -3.8 °F 1012.4 in NE 13.0 mph 24.1 mph 69 % 0.0 in
13:28 1.5 °F -3.6 °F 1012.4 in NNE 7.9 mph 17.7 mph 69 % 0.0 in
13:34 1.5 °F -3.8 °F 1012.4 in NE 6.4 mph 20.9 mph 68 % 0.0 in
13:40 1.3 °F -4.2 °F 1012.4 in NNE 9.7 mph 24.1 mph 67 % 0.0 in
13:46 1.2 °F -4.1 °F 1012.4 in NE 7.9 mph 16.1 mph 68 % 0.0 in
13:52 1.2 °F -3.9 °F 1012.4 in NNE 9.7 mph 16.1 mph 69 % 0.0 in
13:58 1.3 °F -3.8 °F 1012.4 in NNE 6.4 mph 16.1 mph 69 % 0.0 in
14:04 1.2 °F -4.1 °F 1012.4 in NE 20.9 mph 20.9 mph 68 % 0.0 in
14:10 1.1 °F -4.1 °F 1012.4 in NE 16.3 mph 25.7 mph 68 % 0.0 in
14:16 1.1 °F -4.3 °F 1012.4 in NE 11.1 mph 20.9 mph 67 % 0.0 in
14:22 1.1 °F -4.0 °F 1012.4 in NNE 9.7 mph 20.9 mph 69 % 0.0 in
14:28 1.1 °F -4.1 °F 1012.4 in NE 11.1 mph 14.5 mph 68 % 0.0 in
14:34 1.2 °F -3.7 °F 1012.4 in NNE 19.5 mph 24.1 mph 70 % 0.0 in
14:40 1.2 °F -3.9 °F 1012.4 in NNE 11.1 mph 17.7 mph 69 % 0.0 in
14:46 1.1 °F -4.1 °F 1012.4 in NNE 13.0 mph 19.3 mph 68 % 0.0 in
14:52 1.1 °F -4.0 °F 1012.4 in NE 9.7 mph 11.3 mph 69 % 0.0 in
14:58 1.2 °F -3.9 °F 1012.1 in NNE 11.1 mph 12.9 mph 69 % 0.0 in
15:04 1.2 °F -4.1 °F 1012.4 in NE 9.7 mph 22.5 mph 68 % 0.0 in
15:10 1.2 °F -3.7 °F 1012.4 in NE 13.0 mph 13.0 mph 70 % 0.0 in
15:16 1.2 °F -3.9 °F 1012.1 in East 7.9 mph 14.5 mph 69 % 0.0 in
15:22 1.3 °F -4.2 °F 1012.1 in ENE 16.3 mph 17.7 mph 67 % 0.0 in
15:28 1.3 °F -3.8 °F 1012.1 in NE 3.2 mph 14.5 mph 69 % 0.0 in
15:34 1.3 °F -4.0 °F 1012.4 in East 13.0 mph 19.3 mph 68 % 0.0 in
15:40 1.2 °F -4.1 °F 1012.4 in ENE 14.3 mph 24.1 mph 68 % 0.0 in
15:46 1.1 °F -4.1 °F 1012.4 in ESE 13.0 mph 19.3 mph 68 % 0.0 in
15:52 1.1 °F -4.1 °F 1012.4 in ENE 4.7 mph 19.3 mph 68 % 0.0 in
15:58 1.1 °F -4.1 °F 1012.4 in NNE 13.0 mph 20.9 mph 68 % 0.0 in
16:04 1.1 °F -4.0 °F 1012.4 in NE 11.1 mph 22.5 mph 69 % 0.0 in
16:10 1.1 °F -4.1 °F 1012.1 in NE 19.5 mph 22.5 mph 68 % 0.0 in
16:16 1.0 °F -4.2 °F 1012.1 in NE 9.7 mph 19.3 mph 68 % 0.0 in
16:22 0.9 °F -4.3 °F 1012.1 in ENE 6.4 mph 17.7 mph 68 % 0.0 in
16:28 0.9 °F -4.3 °F 1012.1 in NE 16.3 mph 19.3 mph 68 % 0.0 in
16:34 0.9 °F -4.0 °F 1012.1 in NE 17.7 mph 20.9 mph 70 % 0.0 in
16:40 0.9 °F -4.1 °F 1012.1 in East 3.2 mph 14.5 mph 69 % 0.0 in
16:46 0.9 °F -4.1 °F 1012.1 in NE 17.7 mph 17.7 mph 69 % 0.0 in
16:52 0.9 °F -4.1 °F 1012.1 in NE 11.1 mph 14.5 mph 69 % 0.0 in
16:58 0.9 °F -4.3 °F 1012.1 in North 7.9 mph 12.9 mph 68 % 0.0 in
17:04 0.9 °F -4.1 °F 1012.1 in NE 7.9 mph 11.3 mph 69 % 0.0 in
17:10 0.9 °F -4.1 °F 1012.1 in NNE 13.0 mph 16.1 mph 69 % 0.0 in
17:16 0.9 °F -4.0 °F 1012.1 in ENE 14.3 mph 19.3 mph 70 % 0.0 in
17:22 0.9 °F -4.1 °F 1012.1 in NE 11.1 mph 17.7 mph 69 % 0.0 in
17:28 0.9 °F -4.1 °F 1012.1 in NE 4.7 mph 17.7 mph 69 % 0.0 in
17:34 0.9 °F -4.1 °F 1012.1 in NNE 13.0 mph 19.3 mph 69 % 0.0 in
17:40 0.9 °F -4.1 °F 1012.1 in Calm   11.3 mph 69 % 0.0 in
17:46 0.9 °F -4.1 °F 1012.1 in NNE 4.7 mph 12.9 mph 69 % 0.0 in
17:52 0.9 °F -4.0 °F 1012.1 in NE 9.7 mph 12.9 mph 70 % 0.0 in
17:58 0.9 °F -4.1 °F 1012.1 in NE 7.9 mph 16.1 mph 69 % 0.0 in
18:04 0.9 °F -4.0 °F 1012.4 in ENE 1.4 mph 6.4 mph 70 % 0.0 in
18:10 0.9 °F -4.0 °F 1012.4 in NE 1.4 mph 9.7 mph 70 % 0.0 in
18:16 0.9 °F -3.8 °F 1012.4 in NE 1.4 mph 4.8 mph 71 % 0.0 in
18:22 0.9 °F -3.8 °F 1012.4 in ENE 4.7 mph 9.7 mph 71 % 0.0 in
18:28 0.9 °F -3.8 °F 1012.4 in NE 4.7 mph 8.0 mph 71 % 0.0 in
18:34 0.8 °F -3.7 °F 1012.4 in NE 3.2 mph 4.8 mph 72 % 0.0 in
18:40 0.8 °F -3.5 °F 1012.4 in ENE 1.4 mph 3.2 mph 73 % 0.0 in
18:46 0.7 °F -3.6 °F 1012.4 in NE 4.7 mph 4.8 mph 73 % 0.0 in
18:52 0.7 °F -3.6 °F 1012.4 in Calm   4.8 mph 73 % 0.0 in
18:58 0.7 °F -3.4 °F 1012.4 in NE 1.4 mph 3.2 mph 74 % 0.0 in
19:04 0.7 °F -3.6 °F 1012.8 in NE 3.2 mph 8.0 mph 73 % 0.0 in
19:10 0.7 °F -3.6 °F 1012.8 in NE 3.2 mph 4.8 mph 73 % 0.0 in
19:16 0.7 °F -3.6 °F 1012.8 in NE 3.2 mph 4.8 mph 73 % 0.0 in
19:22 0.7 °F -3.6 °F 1012.8 in NE 1.4 mph 3.2 mph 73 % 0.0 in
19:28 0.7 °F -3.4 °F 1012.8 in NE 1.4 mph 3.2 mph 74 % 0.0 in
19:34 0.7 °F -3.4 °F 1012.8 in NE 1.4 mph 3.2 mph 74 % 0.0 in
19:40 0.7 °F -3.4 °F 1012.8 in NNE 1.4 mph 4.8 mph 74 % 0.0 in
19:46 0.7 °F -3.4 °F 1012.4 in NNE 1.4 mph 3.2 mph 74 % 0.0 in
19:52 0.7 °F -3.4 °F 1012.4 in NNE 1.4 mph 3.2 mph 74 % 0.0 in
19:58 0.6 °F -3.3 °F 1012.4 in NE 1.4 mph 3.2 mph 75 % 0.0 in
20:04 0.7 °F -3.6 °F 1012.4 in NNE 4.7 mph 4.8 mph 73 % 0.0 in
20:10 0.7 °F -3.6 °F 1012.4 in NE 4.7 mph 4.8 mph 73 % 0.0 in
20:17 0.7 °F -3.6 °F 1012.4 in NNE 3.2 mph 4.8 mph 73 % 0.0 in
20:23 0.8 °F -3.7 °F 1012.4 in NE 3.2 mph 6.4 mph 72 % 0.0 in
20:29 0.8 °F -3.5 °F 1012.4 in NE 3.2 mph 6.4 mph 73 % 0.0 in
20:35 0.7 °F -3.6 °F 1012.4 in NE 4.7 mph 6.4 mph 73 % 0.0 in
20:41 0.8 °F -3.5 °F 1012.4 in NE 1.4 mph 3.2 mph 73 % 0.0 in
20:47 0.8 °F -3.7 °F 1012.4 in NE 4.7 mph 6.4 mph 72 % 0.0 in
20:53 0.8 °F -3.5 °F 1012.4 in NE 3.2 mph 3.2 mph 73 % 0.0 in
20:59 0.7 °F -3.4 °F 1012.4 in NNE 1.4 mph 4.8 mph 74 % 0.0 in
21:05 0.7 °F -3.6 °F 1012.4 in NE 4.7 mph 6.4 mph 73 % 0.0 in
21:11 0.8 °F -3.7 °F 1012.4 in NNE 3.2 mph 6.4 mph 72 % 0.0 in
21:17 0.8 °F -3.5 °F 1012.4 in Calm   8.0 mph 73 % 0.0 in
21:23 0.8 °F -3.7 °F 1012.4 in NNE 4.7 mph 4.8 mph 72 % 0.0 in
21:30 0.8 °F -3.5 °F 1012.4 in NNE 1.4 mph 6.4 mph 73 % 0.0 in
21:37 0.8 °F -3.7 °F 1012.4 in NE 1.4 mph 6.4 mph 72 % 0.0 in
21:43 0.8 °F -3.5 °F 1012.4 in NE 6.4 mph 6.4 mph 73 % 0.0 in
21:49 0.8 °F -3.7 °F 1012.4 in NNE 3.2 mph 6.4 mph 72 % 0.0 in
21:55 0.8 °F -3.7 °F 1012.4 in NE 3.2 mph 3.2 mph 72 % 0.0 in
22:01 0.8 °F -3.7 °F 1012.4 in NE 3.2 mph 4.8 mph 72 % 0.0 in
22:07 0.8 °F -3.5 °F 1012.1 in Calm   3.2 mph 73 % 0.0 in
22:13 0.7 °F -3.4 °F 1012.1 in NE 3.2 mph 4.8 mph 74 % 0.0 in
22:19 0.7 °F -3.4 °F 1012.1 in NE 4.7 mph 6.4 mph 74 % 0.0 in
22:25 0.7 °F -3.6 °F 1012.1 in NE 4.7 mph 6.4 mph 73 % 0.0 in
22:31 0.7 °F -3.4 °F 1012.1 in NE 1.4 mph 4.8 mph 74 % 0.0 in
22:37 0.7 °F -3.4 °F 1012.1 in NNE 6.4 mph 6.4 mph 74 % 0.0 in
22:43 0.8 °F -3.3 °F 1012.1 in NE 1.4 mph 6.4 mph 74 % 0.0 in
22:49 0.8 °F -3.5 °F 1012.1 in ENE 3.2 mph 9.7 mph 73 % 0.0 in
22:55 0.8 °F -3.3 °F 1012.1 in NE 1.4 mph 6.4 mph 74 % 0.0 in
23:01 0.8 °F -3.3 °F 1012.1 in NE 3.2 mph 8.0 mph 74 % 0.0 in
23:07 0.8 °F -3.1 °F 1012.1 in NNE 4.7 mph 9.7 mph 75 % 0.0 in
23:13 0.8 °F -3.1 °F 1012.4 in NNE 1.4 mph 6.4 mph 75 % 0.0 in
23:19 0.7 °F -3.0 °F 1012.4 in NE 1.4 mph 3.2 mph 76 % 0.0 in
23:25 0.7 °F -3.0 °F 1012.1 in NE 3.2 mph 6.4 mph 76 % 0.0 in
23:31 0.7 °F -3.0 °F 1012.1 in NE 3.2 mph 9.7 mph 76 % 0.0 in
23:37 0.7 °F -3.0 °F 1012.1 in NE 3.2 mph 6.4 mph 76 % 0.0 in
23:43 0.7 °F -2.9 °F 1012.1 in ENE 6.4 mph 8.0 mph 77 % 0.0 in
23:49 0.6 °F -3.0 °F 1012.1 in NE 1.4 mph 8.0 mph 77 % 0.0 in
23:55 0.6 °F -2.8 °F 1012.1 in ENE 6.4 mph 6.4 mph 78 % 0.0 in
Meteo18
Compliments of Weather Underground - 4 mb

Script developed by  Jim McMurry - jmcmurry@mwt.net Adapted for the template by  Wim van der Kuil - Leuven-Template.eu

You find our weather info also at:

European Weather Network

Weather Underground

Equipment we use:

Weather-station
Davis Vue

Weather-program
Meteobridge

Weather-server
Raspberry PI 2 B+

Provider
1 and 1

Davis Vue

Meteobridge

Raspberry PI 2 B+

1 and 1